Time,TemperatureF,DewpointF,PressureIn,WindDirection,WindDirectionDegrees,WindSpeedMPH,WindSpeedGustMPH,Humidity,HourlyPrecipIn,Conditions,Clouds,dailyrainin,SoftwareType,DateUTC
2013-08-01 00:01:00,78.3,71.6,30.02,ENE,78,1.0,2.0,80,0.00,,,0.00,meteohub,2013-08-01 04:01:00,
2013-08-01 00:02:00,78.3,71.6,30.02,ENE,78,0.0,2.0,80,0.00,,,0.00,meteohub,2013-08-01 04:02:00,
2013-08-01 00:04:00,78.1,71.4,30.02,ENE,78,0.0,2.0,80,0.00,,,0.00,meteohub,2013-08-01 04:04:00,
2013-08-01 00:06:00,78.1,71.4,30.01,ENE,78,1.0,2.0,80,0.00,,,0.00,meteohub,2013-08-01 04:06:00,
2013-08-01 00:11:00,78.1,71.8,30.02,ENE,78,1.0,2.0,81,0.00,,,0.00,meteohub,2013-08-01 04:11:00,
2013-08-01 00:17:00,77.9,72.0,30.01,ENE,78,1.0,2.0,82,0.00,,,0.00,meteohub,2013-08-01 04:17:00,
2013-08-01 00:22:00,77.7,71.8,30.01,ENE,78,1.0,2.0,82,0.00,,,0.00,meteohub,2013-08-01 04:22:00,
2013-08-01 00:27:00,77.7,71.8,30.01,ENE,78,1.0,2.0,82,0.00,,,0.00,meteohub,2013-08-01 04:27:00,
2013-08-01 00:32:00,77.7,71.8,30.01,ENE,78,2.0,2.0,82,0.00,,,0.00,meteohub,2013-08-01 04:32:00,
2013-08-01 00:37:00,77.7,71.8,30.01,ENE,78,0.0,2.0,82,0.00,,,0.00,meteohub,2013-08-01 04:37:00,
2013-08-01 00:42:00,77.5,71.6,30.01,ENE,78,1.0,2.0,82,0.00,,,0.00,meteohub,2013-08-01 04:42:00,
2013-08-01 00:47:00,77.5,71.6,30.00,ENE,78,0.0,3.0,82,0.00,,,0.00,meteohub,2013-08-01 04:47:00,
2013-08-01 00:52:00,77.5,72.0,30.00,ENE,78,2.0,3.0,83,0.00,,,0.00,meteohub,2013-08-01 04:52:00,
2013-08-01 00:57:00,77.5,72.0,30.00,ENE,78,1.0,3.0,83,0.00,,,0.00,meteohub,2013-08-01 04:57:00,
2013-08-01 01:02:00,77.5,72.0,30.00,ENE,78,1.0,2.0,83,0.00,,,0.00,meteohub,2013-08-01 05:02:00,
2013-08-01 01:07:00,77.7,72.5,30.00,ENE,78,1.0,2.0,84,0.00,,,0.00,meteohub,2013-08-01 05:07:00,
2013-08-01 01:12:00,77.7,72.5,29.99,ENE,78,1.0,2.0,84,0.00,,,0.00,meteohub,2013-08-01 05:12:00,
2013-08-01 01:17:00,77.7,72.5,29.99,ENE,78,0.0,2.0,84,0.00,,,0.00,meteohub,2013-08-01 05:17:00,
2013-08-01 01:22:00,77.7,72.9,29.99,ENE,78,2.0,2.0,85,0.00,,,0.00,meteohub,2013-08-01 05:22:00,
2013-08-01 01:27:00,77.9,73.0,29.99,ENE,78,1.0,2.0,85,0.00,,,0.00,meteohub,2013-08-01 05:27:00,
2013-08-01 01:32:00,78.1,73.6,29.98,ENE,78,1.0,2.0,86,0.00,,,0.00,meteohub,2013-08-01 05:32:00,
2013-08-01 01:38:00,78.1,73.6,29.98,ENE,78,1.0,3.0,86,0.00,,,0.00,meteohub,2013-08-01 05:38:00,
2013-08-01 01:43:00,78.3,73.8,29.98,ENE,78,0.0,3.0,86,0.00,,,0.00,meteohub,2013-08-01 05:43:00,
2013-08-01 01:48:00,78.3,73.8,29.98,ENE,78,0.0,2.0,86,0.00,,,0.00,meteohub,2013-08-01 05:48:00,
2013-08-01 01:53:00,78.4,73.9,29.97,ENE,78,0.0,3.0,86,0.00,,,0.00,meteohub,2013-08-01 05:53:00,
2013-08-01 01:58:00,78.4,73.9,29.97,ENE,78,2.0,3.0,86,0.00,,,0.00,meteohub,2013-08-01 05:58:00,
2013-08-01 02:03:00,78.4,73.9,29.97,ENE,78,1.0,3.0,86,0.00,,,0.00,meteohub,2013-08-01 06:03:00,
2013-08-01 02:09:00,78.6,74.1,29.97,ENE,78,2.0,2.0,86,0.00,,,0.00,meteohub,2013-08-01 06:09:00,
2013-08-01 02:14:00,78.6,74.1,29.97,ENE,78,0.0,2.0,86,0.00,,,0.00,meteohub,2013-08-01 06:14:00,
2013-08-01 02:19:00,78.8,73.9,29.97,ENE,78,0.0,2.0,85,0.00,,,0.00,meteohub,2013-08-01 06:19:00,
2013-08-01 02:24:00,78.8,74.3,29.96,ENE,78,2.0,2.0,86,0.00,,,0.00,meteohub,2013-08-01 06:24:00,
2013-08-01 02:29:00,79.0,74.1,29.96,ENE,78,1.0,2.0,85,0.00,,,0.00,meteohub,2013-08-01 06:29:00,
2013-08-01 02:34:00,79.0,74.1,29.96,ENE,78,2.0,2.0,85,0.00,,,0.00,meteohub,2013-08-01 06:34:00,
2013-08-01 02:40:00,79.2,74.7,29.96,ENE,78,2.0,3.0,86,0.00,,,0.00,meteohub,2013-08-01 06:40:00,
2013-08-01 02:45:00,79.2,74.7,29.96,ENE,78,2.0,3.0,86,0.00,,,0.00,meteohub,2013-08-01 06:45:00,
2013-08-01 02:50:00,79.3,74.8,29.96,ENE,78,1.0,3.0,86,0.00,,,0.00,meteohub,2013-08-01 06:50:00,
2013-08-01 02:55:00,79.3,74.8,29.96,ENE,78,2.0,3.0,86,0.00,,,0.00,meteohub,2013-08-01 06:55:00,
2013-08-01 03:00:00,79.5,75.0,29.95,ENE,78,2.0,3.0,86,0.00,,,0.00,meteohub,2013-08-01 07:00:00,
2013-08-01 03:05:00,79.5,75.0,29.95,East,88,1.0,3.0,86,0.00,,,0.00,meteohub,2013-08-01 07:05:00,
2013-08-01 03:10:00,79.5,75.0,29.95,East,88,1.0,3.0,86,0.00,,,0.00,meteohub,2013-08-01 07:10:00,
2013-08-01 03:16:00,79.7,75.2,29.95,East,89,3.0,3.0,86,0.00,,,0.00,meteohub,2013-08-01 07:16:00,
2013-08-01 03:21:00,79.9,75.0,29.95,South,177,2.0,4.0,85,0.00,,,0.00,meteohub,2013-08-01 07:21:00,
2013-08-01 03:26:00,79.9,75.4,29.95,South,177,0.0,4.0,86,0.00,,,0.00,meteohub,2013-08-01 07:26:00,
2013-08-01 03:31:00,79.9,75.4,29.94,South,177,1.0,4.0,86,0.00,,,0.00,meteohub,2013-08-01 07:31:00,
2013-08-01 03:36:00,79.9,75.4,29.94,South,177,0.0,3.0,86,0.00,,,0.00,meteohub,2013-08-01 07:36:00,
2013-08-01 03:41:00,79.9,75.4,29.94,South,177,2.0,3.0,86,0.00,,,0.00,meteohub,2013-08-01 07:41:00,
2013-08-01 03:46:00,79.9,75.0,29.94,South,177,1.0,3.0,85,0.00,,,0.00,meteohub,2013-08-01 07:46:00,
2013-08-01 03:51:00,79.9,74.7,29.94,South,176,2.0,3.0,84,0.00,,,0.00,meteohub,2013-08-01 07:51:00,
2013-08-01 03:56:00,80.1,74.8,29.94,SE,146,1.0,3.0,84,0.00,,,0.00,meteohub,2013-08-01 07:56:00,
2013-08-01 04:02:00,80.1,74.5,29.94,SSE,150,0.0,4.0,83,0.00,,,0.00,meteohub,2013-08-01 08:02:00,
2013-08-01 04:07:00,80.1,74.5,29.94,SSE,150,2.0,4.0,83,0.00,,,0.00,meteohub,2013-08-01 08:07:00,
2013-08-01 04:12:00,80.1,74.8,29.94,SSE,150,1.0,4.0,84,0.00,,,0.00,meteohub,2013-08-01 08:12:00,
2013-08-01 04:17:00,80.1,74.8,29.93,SSE,149,1.0,4.0,84,0.00,,,0.00,meteohub,2013-08-01 08:17:00,
2013-08-01 04:22:00,80.1,74.8,29.93,SSE,149,2.0,3.0,84,0.00,,,0.00,meteohub,2013-08-01 08:22:00,
2013-08-01 04:27:00,80.1,74.8,29.93,SE,146,1.0,3.0,84,0.00,,,0.00,meteohub,2013-08-01 08:27:00,
2013-08-01 04:33:00,79.9,75.0,29.93,SE,146,2.0,3.0,85,0.00,,,0.00,meteohub,2013-08-01 08:33:00,
2013-08-01 04:38:00,79.9,75.0,29.93,SE,146,1.0,3.0,85,0.00,,,0.00,meteohub,2013-08-01 08:38:00,
2013-08-01 04:43:00,79.9,75.0,29.93,SE,146,0.0,3.0,85,0.00,,,0.00,meteohub,2013-08-01 08:43:00,
2013-08-01 04:49:00,79.9,75.4,29.93,SE,146,0.0,3.0,86,0.00,,,0.00,meteohub,2013-08-01 08:49:00,
2013-08-01 04:54:00,79.7,75.2,29.93,SE,146,1.0,2.0,86,0.00,,,0.00,meteohub,2013-08-01 08:54:00,
2013-08-01 04:59:00,79.7,75.2,29.93,SE,146,1.0,2.0,86,0.00,,,0.00,meteohub,2013-08-01 08:59:00,
2013-08-01 05:04:00,79.7,75.2,29.93,SE,146,0.0,2.0,86,0.00,,,0.00,meteohub,2013-08-01 09:04:00,
2013-08-01 05:09:00,79.5,75.0,29.93,SE,146,1.0,2.0,86,0.00,,,0.00,meteohub,2013-08-01 09:09:00,
2013-08-01 05:14:00,79.5,75.0,29.94,SE,146,0.0,2.0,86,0.00,,,0.00,meteohub,2013-08-01 09:14:00,
2013-08-01 05:20:00,79.5,75.0,29.94,SE,146,0.0,2.0,86,0.00,,,0.00,meteohub,2013-08-01 09:20:00,
2013-08-01 05:25:00,79.5,75.0,29.94,SE,146,1.0,2.0,86,0.00,,,0.00,meteohub,2013-08-01 09:25:00,
2013-08-01 05:31:00,79.5,75.0,29.94,SE,146,0.0,2.0,86,0.00,,,0.00,meteohub,2013-08-01 09:31:00,
2013-08-01 05:37:00,79.5,75.0,29.94,SE,146,0.0,2.0,86,0.00,,,0.00,meteohub,2013-08-01 09:37:00,
2013-08-01 05:42:00,79.5,75.0,29.94,SE,146,1.0,2.0,86,0.00,,,0.00,meteohub,2013-08-01 09:42:00,
2013-08-01 05:47:00,79.5,75.0,29.94,SE,146,0.0,2.0,86,0.00,,,0.00,meteohub,2013-08-01 09:47:00,
2013-08-01 05:52:00,79.5,75.0,29.94,SE,146,0.0,2.0,86,0.00,,,0.00,meteohub,2013-08-01 09:52:00,
2013-08-01 05:58:00,79.5,75.0,29.95,SE,146,0.0,2.0,86,0.00,,,0.00,meteohub,2013-08-01 09:58:00,
2013-08-01 06:04:00,79.5,75.0,29.95,SE,146,1.0,2.0,86,0.00,,,0.00,meteohub,2013-08-01 10:04:00,
2013-08-01 06:09:00,79.5,75.4,29.95,SE,146,1.0,2.0,87,0.00,,,0.00,meteohub,2013-08-01 10:09:00,
2013-08-01 06:15:00,79.5,75.4,29.95,SE,146,1.0,2.0,87,0.00,,,0.00,meteohub,2013-08-01 10:15:00,
2013-08-01 06:20:00,79.5,75.4,29.95,SE,146,0.0,2.0,87,0.00,,,0.00,meteohub,2013-08-01 10:20:00,
2013-08-01 06:25:00,79.5,75.4,29.95,SE,146,1.0,2.0,87,0.00,,,0.00,meteohub,2013-08-01 10:25:00,
2013-08-01 06:32:00,79.7,75.6,29.95,SE,146,1.0,2.0,87,0.00,,,0.00,meteohub,2013-08-01 10:32:00,
2013-08-01 06:37:00,79.7,75.6,29.96,SE,146,0.0,2.0,87,0.00,,,0.00,meteohub,2013-08-01 10:37:00,
2013-08-01 06:43:00,79.7,75.2,29.96,SE,146,0.0,2.0,86,0.00,,,0.00,meteohub,2013-08-01 10:43:00,
2013-08-01 06:48:00,79.7,75.2,29.96,SE,146,1.0,2.0,86,0.00,,,0.00,meteohub,2013-08-01 10:48:00,
2013-08-01 06:53:00,79.7,75.6,29.96,SE,146,1.0,2.0,87,0.00,,,0.00,meteohub,2013-08-01 10:53:00,
2013-08-01 06:59:00,79.7,75.6,29.96,SE,146,1.0,2.0,87,0.00,,,0.00,meteohub,2013-08-01 10:59:00,
2013-08-01 07:06:00,79.7,75.6,29.96,SE,146,0.0,2.0,87,0.00,,,0.00,meteohub,2013-08-01 11:06:00,
2013-08-01 07:11:00,79.9,75.7,29.97,SE,146,1.0,2.0,87,0.00,,,0.00,meteohub,2013-08-01 11:11:00,
2013-08-01 07:17:00,79.9,75.4,29.97,SE,146,2.0,2.0,86,0.00,,,0.00,meteohub,2013-08-01 11:17:00,
2013-08-01 07:22:00,79.9,75.4,29.97,SE,146,0.0,2.0,86,0.00,,,0.00,meteohub,2013-08-01 11:22:00,
2013-08-01 07:27:00,80.1,75.6,29.97,SE,146,0.0,2.0,86,0.00,,,0.00,meteohub,2013-08-01 11:27:00,
2013-08-01 07:32:00,80.2,75.7,29.97,SE,146,2.0,2.0,86,0.00,,,0.00,meteohub,2013-08-01 11:32:00,
2013-08-01 07:37:00,80.2,75.7,29.97,SE,146,1.0,2.0,86,0.00,,,0.00,meteohub,2013-08-01 11:37:00,
2013-08-01 07:43:00,80.4,75.9,29.97,SE,146,0.0,2.0,86,0.00,,,0.00,meteohub,2013-08-01 11:43:00,
2013-08-01 07:48:00,80.6,76.1,29.97,SE,146,1.0,3.0,86,0.00,,,0.00,meteohub,2013-08-01 11:48:00,
2013-08-01 07:53:00,80.8,76.3,29.97,SE,146,2.0,3.0,86,0.00,,,0.00,meteohub,2013-08-01 11:53:00,
2013-08-01 07:59:00,81.0,76.1,29.97,SE,146,2.0,3.0,85,0.00,,,0.00,meteohub,2013-08-01 11:59:00,
2013-08-01 08:04:00,81.1,76.3,29.97,SE,146,1.0,3.0,85,0.00,,,0.00,meteohub,2013-08-01 12:04:00,
2013-08-01 08:09:00,81.1,76.3,29.97,SE,146,1.0,3.0,85,0.00,,,0.00,meteohub,2013-08-01 12:09:00,
2013-08-01 08:15:00,81.1,76.3,29.98,SE,146,1.0,3.0,85,0.00,,,0.00,meteohub,2013-08-01 12:15:00,
2013-08-01 08:20:00,81.7,76.6,29.98,SE,146,1.0,4.0,85,0.00,,,0.00,meteohub,2013-08-01 12:20:00,
2013-08-01 08:25:00,82.2,76.8,29.98,SE,146,0.0,4.0,84,0.00,,,0.00,meteohub,2013-08-01 12:25:00,
2013-08-01 08:30:00,83.1,77.0,29.98,SE,146,3.0,3.0,82,0.00,,,0.00,meteohub,2013-08-01 12:30:00,
2013-08-01 08:35:00,84.0,77.2,29.98,SE,145,2.0,3.0,80,0.00,,,0.00,meteohub,2013-08-01 12:35:00,
2013-08-01 08:41:00,84.6,77.0,29.98,SE,146,2.0,3.0,78,0.00,,,0.00,meteohub,2013-08-01 12:41:00,
2013-08-01 08:46:00,84.9,76.8,29.98,SE,145,1.0,4.0,77,0.00,,,0.00,meteohub,2013-08-01 12:46:00,
2013-08-01 08:52:00,85.5,77.4,29.98,SE,131,4.0,4.0,77,0.00,,,0.00,meteohub,2013-08-01 12:52:00,
2013-08-01 08:57:00,85.8,77.0,29.98,ESE,103,1.0,5.0,75,0.00,,,0.00,meteohub,2013-08-01 12:57:00,
2013-08-01 09:02:00,86.2,77.4,29.98,ESE,104,2.0,5.0,75,0.00,,,0.00,meteohub,2013-08-01 13:02:00,
2013-08-01 09:07:00,86.5,77.2,29.98,ESE,113,2.0,5.0,74,0.00,,,0.00,meteohub,2013-08-01 13:07:00,
2013-08-01 09:12:00,87.1,77.7,29.98,ESE,113,0.0,4.0,74,0.00,,,0.00,meteohub,2013-08-01 13:12:00,
2013-08-01 09:17:00,87.6,77.5,29.98,ESE,123,1.0,4.0,72,0.00,,,0.00,meteohub,2013-08-01 13:17:00,
2013-08-01 09:22:00,88.5,77.9,29.98,ESE,123,0.0,5.0,71,0.00,,,0.00,meteohub,2013-08-01 13:22:00,
2013-08-01 09:27:00,89.1,77.5,29.98,ESE,107,2.0,5.0,69,0.00,,,0.00,meteohub,2013-08-01 13:27:00,
2013-08-01 09:33:00,88.5,77.0,29.97,ESE,107,1.0,6.0,69,0.00,,,0.00,meteohub,2013-08-01 13:33:00,
2013-08-01 09:38:00,88.5,76.6,29.97,ESE,109,1.0,7.0,68,0.00,,,0.00,meteohub,2013-08-01 13:38:00,
2013-08-01 09:43:00,89.2,76.8,29.98,SE,140,3.0,7.0,67,0.00,,,0.00,meteohub,2013-08-01 13:43:00,
2013-08-01 09:48:00,89.8,76.8,29.98,SE,136,1.0,5.0,66,0.00,,,0.00,meteohub,2013-08-01 13:48:00,
2013-08-01 09:54:00,90.1,77.7,29.98,SE,136,3.0,4.0,67,0.00,,,0.00,meteohub,2013-08-01 13:54:00,
2013-08-01 09:59:00,90.9,77.5,29.98,East,98,2.0,4.0,65,0.00,,,0.00,meteohub,2013-08-01 13:59:00,
2013-08-01 10:04:00,91.6,77.2,29.98,East,98,2.0,4.0,63,0.00,,,0.00,meteohub,2013-08-01 14:04:00,
2013-08-01 10:10:00,91.6,76.3,29.99,ESE,108,4.0,7.0,61,0.00,,,0.00,meteohub,2013-08-01 14:10:00,
2013-08-01 10:15:00,90.9,75.6,29.99,ESE,104,3.0,7.0,61,0.00,,,0.00,meteohub,2013-08-01 14:15:00,
2013-08-01 10:22:00,90.3,75.6,29.99,SSE,157,1.0,7.0,62,0.00,,,0.00,meteohub,2013-08-01 14:22:00,
2013-08-01 10:27:00,90.3,75.9,29.99,SSE,155,2.0,5.0,63,0.00,,,0.00,meteohub,2013-08-01 14:27:00,
2013-08-01 10:32:00,90.3,75.6,29.99,SSE,151,1.0,5.0,62,0.00,,,0.00,meteohub,2013-08-01 14:32:00,
2013-08-01 10:37:00,90.3,75.6,29.99,SSE,151,1.0,5.0,62,0.00,,,0.00,meteohub,2013-08-01 14:37:00,
2013-08-01 10:43:00,90.1,75.4,29.99,ESE,117,3.0,4.0,62,0.00,,,0.00,meteohub,2013-08-01 14:43:00,
2013-08-01 10:48:00,90.0,75.7,29.99,East,90,1.0,4.0,63,0.00,,,0.00,meteohub,2013-08-01 14:48:00,
2013-08-01 10:54:00,90.1,75.9,29.99,East,90,1.0,6.0,63,0.00,,,0.00,meteohub,2013-08-01 14:54:00,
2013-08-01 10:59:00,90.9,76.1,29.99,East,90,2.0,6.0,62,0.00,,,0.00,meteohub,2013-08-01 14:59:00,
2013-08-01 11:04:00,91.0,76.3,29.99,East,90,1.0,6.0,62,0.00,,,0.00,meteohub,2013-08-01 15:04:00,
2013-08-01 11:10:00,91.0,75.7,29.99,East,90,1.0,5.0,61,0.00,,,0.00,meteohub,2013-08-01 15:10:00,
2013-08-01 11:15:00,91.6,76.3,29.98,East,90,3.0,5.0,61,0.00,,,0.00,meteohub,2013-08-01 15:15:00,
2013-08-01 11:21:00,91.0,75.7,29.98,East,90,2.0,5.0,61,0.00,,,0.00,meteohub,2013-08-01 15:21:00,
2013-08-01 11:27:00,91.2,75.9,29.98,East,90,2.0,5.0,61,0.00,,,0.00,meteohub,2013-08-01 15:27:00,
2013-08-01 11:32:00,91.8,76.5,29.98,East,90,2.0,5.0,61,0.00,,,0.00,meteohub,2013-08-01 15:32:00,
2013-08-01 11:37:00,92.7,76.3,29.98,East,90,2.0,3.0,59,0.00,,,0.00,meteohub,2013-08-01 15:37:00,
2013-08-01 11:42:00,93.6,76.1,29.98,East,90,2.0,3.0,57,0.00,,,0.00,meteohub,2013-08-01 15:42:00,
2013-08-01 11:47:00,94.3,76.6,29.98,East,90,1.0,3.0,57,0.00,,,0.00,meteohub,2013-08-01 15:47:00,
2013-08-01 11:53:00,93.4,76.5,29.99,East,90,1.0,6.0,58,0.00,,,0.00,meteohub,2013-08-01 15:53:00,
2013-08-01 11:58:00,93.2,76.6,29.98,East,90,1.0,6.0,59,0.00,,,0.00,meteohub,2013-08-01 15:58:00,
2013-08-01 12:03:00,93.6,76.1,29.98,East,90,0.0,6.0,57,0.00,,,0.00,meteohub,2013-08-01 16:03:00,
2013-08-01 12:08:00,93.7,76.3,29.97,East,90,2.0,3.0,57,0.00,,,0.00,meteohub,2013-08-01 16:08:00,
2013-08-01 12:14:00,94.6,76.5,29.97,ESE,107,3.0,5.0,56,0.00,,,0.00,meteohub,2013-08-01 16:14:00,
2013-08-01 12:19:00,94.8,76.6,29.97,ESE,120,4.0,6.0,56,0.00,,,0.00,meteohub,2013-08-01 16:19:00,
2013-08-01 12:24:00,94.3,76.6,29.97,ESE,105,3.0,6.0,57,0.00,,,0.00,meteohub,2013-08-01 16:24:00,
2013-08-01 12:29:00,94.1,77.0,29.96,WNW,292,2.0,7.0,58,0.00,,,0.00,meteohub,2013-08-01 16:29:00,
2013-08-01 12:35:00,93.7,76.3,29.96,SE,130,1.0,7.0,57,0.00,,,0.00,meteohub,2013-08-01 16:35:00,
2013-08-01 12:42:00,92.5,77.0,29.97,WNW,283,2.0,5.0,61,0.00,,,0.00,meteohub,2013-08-01 16:42:00,
2013-08-01 12:47:00,87.6,73.9,29.99,West,259,9.0,9.0,64,0.00,,,0.00,meteohub,2013-08-01 16:47:00,
2013-08-01 12:53:00,78.1,68.4,29.99,West,277,5.0,21.0,72,0.41,,,0.01,meteohub,2013-08-01 16:53:00,
2013-08-01 12:58:00,75.4,69.1,29.99,WSW,249,1.0,21.0,81,0.41,,,0.01,meteohub,2013-08-01 16:58:00,
2013-08-01 13:03:00,74.1,70.0,29.98,WSW,249,0.0,21.0,87,0.63,,,0.62,meteohub,2013-08-01 17:03:00,
2013-08-01 13:09:00,73.6,70.7,29.98,WSW,249,0.0,15.0,91,0.67,,,0.67,meteohub,2013-08-01 17:09:00,
2013-08-01 13:14:00,73.8,71.6,29.98,WSW,249,0.0,4.0,93,0.73,,,0.73,meteohub,2013-08-01 17:14:00,
2013-08-01 13:19:00,74.1,72.3,29.98,WSW,249,1.0,2.0,94,0.75,,,0.75,meteohub,2013-08-01 17:19:00,
2013-08-01 13:24:00,74.5,72.7,29.98,WSW,249,1.0,2.0,94,0.75,,,0.75,meteohub,2013-08-01 17:24:00,
2013-08-01 13:30:00,74.7,72.9,29.98,WSW,249,0.0,3.0,94,0.76,,,0.76,meteohub,2013-08-01 17:30:00,
2013-08-01 13:35:00,75.4,73.8,29.99,WSW,249,0.0,3.0,95,0.76,,,0.76,meteohub,2013-08-01 17:35:00,
2013-08-01 13:41:00,75.2,73.4,29.99,WSW,249,0.0,3.0,94,0.76,,,0.77,meteohub,2013-08-01 17:41:00,
2013-08-01 13:46:00,75.4,73.8,29.98,WSW,249,0.0,2.0,95,0.77,,,0.77,meteohub,2013-08-01 17:46:00,
2013-08-01 13:51:00,75.7,74.1,29.98,WSW,249,0.0,2.0,95,0.33,,,0.77,meteohub,2013-08-01 17:51:00,
2013-08-01 13:57:00,76.3,74.7,29.97,WSW,249,0.0,1.0,95,0.20,,,0.77,meteohub,2013-08-01 17:57:00,
2013-08-01 14:02:00,76.6,75.0,29.97,WSW,249,0.0,1.0,95,0.12,,,0.77,meteohub,2013-08-01 18:02:00,
2013-08-01 14:07:00,76.8,75.2,29.97,WSW,249,0.0,1.0,95,0.07,,,0.77,meteohub,2013-08-01 18:07:00,
2013-08-01 14:13:00,76.8,75.2,29.97,WSW,249,0.0,1.0,95,0.04,,,0.77,meteohub,2013-08-01 18:13:00,
2013-08-01 14:18:00,76.8,75.2,29.96,WSW,249,0.0,1.0,95,0.02,,,0.77,meteohub,2013-08-01 18:18:00,
2013-08-01 14:23:00,77.4,75.7,29.96,WSW,249,0.0,2.0,95,0.01,,,0.77,meteohub,2013-08-01 18:23:00,
2013-08-01 14:28:00,77.7,76.1,29.96,WSW,249,0.0,2.0,95,0.01,,,0.77,meteohub,2013-08-01 18:28:00,
2013-08-01 14:34:00,77.7,75.6,29.96,WSW,249,0.0,2.0,93,0.01,,,0.77,meteohub,2013-08-01 18:34:00,
2013-08-01 14:39:00,78.3,75.7,29.96,WSW,249,0.0,2.0,92,0.01,,,0.77,meteohub,2013-08-01 18:39:00,
2013-08-01 14:44:00,78.4,75.2,29.96,WSW,249,0.0,2.0,90,0.00,,,0.77,meteohub,2013-08-01 18:44:00,
2013-08-01 14:50:00,79.0,76.1,29.96,WSW,249,0.0,2.0,91,0.00,,,0.77,meteohub,2013-08-01 18:50:00,
2013-08-01 14:55:00,80.1,76.8,29.96,WSW,249,2.0,2.0,90,0.00,,,0.77,meteohub,2013-08-01 18:55:00,
2013-08-01 15:00:00,81.0,76.6,29.96,WSW,249,1.0,3.0,87,0.00,,,0.77,meteohub,2013-08-01 19:00:00,
2013-08-01 15:05:00,82.0,77.0,29.95,WSW,249,1.0,4.0,85,0.00,,,0.77,meteohub,2013-08-01 19:05:00,
2013-08-01 15:12:00,84.4,79.3,29.95,WSW,249,2.0,4.0,85,0.00,,,0.77,meteohub,2013-08-01 19:12:00,
2013-08-01 15:17:00,85.8,78.6,29.94,WNW,285,4.0,4.0,79,0.00,,,0.77,meteohub,2013-08-01 19:17:00,
2013-08-01 15:23:00,87.4,79.0,29.94,WNW,283,1.0,5.0,76,0.00,,,0.77,meteohub,2013-08-01 19:23:00,
2013-08-01 15:29:00,89.6,79.3,29.94,NW,316,1.0,5.0,72,0.00,,,0.77,meteohub,2013-08-01 19:29:00,
2013-08-01 15:34:00,90.9,78.4,29.94,West,277,0.0,5.0,67,0.00,,,0.77,meteohub,2013-08-01 19:34:00,
2013-08-01 15:39:00,91.9,79.3,29.94,West,277,2.0,6.0,67,0.00,,,0.77,meteohub,2013-08-01 19:39:00,
2013-08-01 15:44:00,92.7,77.7,29.94,West,277,4.0,6.0,62,0.00,,,0.77,meteohub,2013-08-01 19:44:00,
2013-08-01 15:49:00,92.5,78.1,29.94,West,277,3.0,6.0,63,0.00,,,0.77,meteohub,2013-08-01 19:49:00,
2013-08-01 15:54:00,91.9,78.4,29.93,WNW,294,5.0,6.0,65,0.00,,,0.77,meteohub,2013-08-01 19:54:00,
2013-08-01 15:59:00,91.2,77.7,29.94,WNW,293,2.0,7.0,65,0.00,,,0.77,meteohub,2013-08-01 19:59:00,
2013-08-01 16:05:00,90.5,77.5,29.93,WNW,287,6.0,7.0,66,0.00,,,0.77,meteohub,2013-08-01 20:05:00,
2013-08-01 16:10:00,89.6,77.5,29.93,WNW,286,4.0,7.0,68,0.00,,,0.77,meteohub,2013-08-01 20:10:00,
2013-08-01 16:16:00,89.1,77.2,29.93,WNW,286,3.0,7.0,68,0.00,,,0.77,meteohub,2013-08-01 20:16:00,
2013-08-01 16:21:00,88.7,77.2,29.93,WNW,286,2.0,6.0,69,0.00,,,0.77,meteohub,2013-08-01 20:21:00,
2013-08-01 16:26:00,88.5,77.0,29.93,West,279,1.0,6.0,69,0.00,,,0.77,meteohub,2013-08-01 20:26:00,
2013-08-01 16:32:00,88.9,77.0,29.93,West,279,2.0,6.0,68,0.00,,,0.77,meteohub,2013-08-01 20:32:00,
2013-08-01 16:37:00,89.6,77.2,29.93,West,279,3.0,6.0,67,0.00,,,0.77,meteohub,2013-08-01 20:37:00,
2013-08-01 16:41:00,90.3,76.5,29.92,West,279,2.0,7.0,64,0.00,,,0.77,meteohub,2013-08-01 20:41:00,
2013-08-01 16:46:00,90.9,76.5,29.92,West,280,6.0,7.0,63,0.00,,,0.77,meteohub,2013-08-01 20:46:00,
2013-08-01 16:52:00,91.0,76.6,29.92,WNW,282,4.0,7.0,63,0.00,,,0.77,meteohub,2013-08-01 20:52:00,
2013-08-01 16:57:00,90.1,75.9,29.92,WNW,287,4.0,8.0,63,0.00,,,0.77,meteohub,2013-08-01 20:57:00,
2013-08-01 17:02:00,89.6,75.7,29.92,WNW,286,3.0,8.0,64,0.00,,,0.77,meteohub,2013-08-01 21:02:00,
2013-08-01 17:07:00,89.2,75.9,29.92,West,271,2.0,8.0,65,0.00,,,0.77,meteohub,2013-08-01 21:07:00,
2013-08-01 17:13:00,89.2,76.5,29.92,WNW,283,4.0,7.0,66,0.00,,,0.77,meteohub,2013-08-01 21:13:00,
2013-08-01 17:18:00,89.6,76.6,29.92,West,276,3.0,7.0,66,0.00,,,0.77,meteohub,2013-08-01 21:18:00,
2013-08-01 17:23:00,89.4,76.6,29.92,West,259,5.0,7.0,66,0.00,,,0.77,meteohub,2013-08-01 21:23:00,
2013-08-01 17:29:00,89.2,76.8,29.92,West,281,3.0,8.0,67,0.00,,,0.77,meteohub,2013-08-01 21:29:00,
2013-08-01 17:34:00,88.9,77.0,29.92,West,261,5.0,8.0,68,0.00,,,0.77,meteohub,2013-08-01 21:34:00,
2013-08-01 17:40:00,88.7,77.2,29.92,West,269,2.0,9.0,69,0.00,,,0.77,meteohub,2013-08-01 21:40:00,
2013-08-01 17:45:00,89.4,77.5,29.92,West,265,4.0,9.0,68,0.00,,,0.77,meteohub,2013-08-01 21:45:00,
2013-08-01 17:50:00,90.0,77.5,29.91,NW,320,3.0,6.0,67,0.00,,,0.77,meteohub,2013-08-01 21:50:00,
2013-08-01 17:56:00,90.1,77.2,29.92,West,270,3.0,7.0,66,0.00,,,0.77,meteohub,2013-08-01 21:56:00,
2013-08-01 18:01:00,90.7,77.4,29.92,WNW,298,4.0,7.0,65,0.00,,,0.77,meteohub,2013-08-01 22:01:00,
2013-08-01 18:06:00,90.9,77.5,29.92,West,260,6.0,7.0,65,0.00,,,0.77,meteohub,2013-08-01 22:06:00,
2013-08-01 18:12:00,90.1,77.7,29.92,NW,316,5.0,8.0,67,0.00,,,0.77,meteohub,2013-08-01 22:12:00,
2013-08-01 18:18:00,90.0,77.5,29.92,NW,324,3.0,8.0,67,0.00,,,0.77,meteohub,2013-08-01 22:18:00,
2013-08-01 18:23:00,90.1,77.2,29.92,NW,318,3.0,8.0,66,0.00,,,0.77,meteohub,2013-08-01 22:23:00,
2013-08-01 18:28:00,90.1,76.8,29.92,NW,306,3.0,6.0,65,0.00,,,0.77,meteohub,2013-08-01 22:28:00,
2013-08-01 18:34:00,90.3,75.9,29.92,NW,314,1.0,6.0,63,0.00,,,0.77,meteohub,2013-08-01 22:34:00,
2013-08-01 18:39:00,90.7,75.9,29.93,NNW,331,5.0,6.0,62,0.00,,,0.77,meteohub,2013-08-01 22:39:00,
2013-08-01 18:44:00,90.5,77.2,29.93,WNW,301,5.0,6.0,65,0.00,,,0.77,meteohub,2013-08-01 22:44:00,
2013-08-01 18:49:00,89.8,76.8,29.92,WNW,294,2.0,6.0,66,0.00,,,0.77,meteohub,2013-08-01 22:49:00,
2013-08-01 18:55:00,89.2,75.9,29.92,WNW,294,3.0,8.0,65,0.00,,,0.77,meteohub,2013-08-01 22:55:00,
2013-08-01 19:00:00,88.5,75.7,29.92,WNW,294,1.0,8.0,66,0.00,,,0.77,meteohub,2013-08-01 23:00:00,
2013-08-01 19:05:00,87.6,75.7,29.93,WNW,294,2.0,6.0,68,0.00,,,0.77,meteohub,2013-08-01 23:05:00,
2013-08-01 19:10:00,87.3,76.3,29.93,WNW,294,3.0,4.0,70,0.00,,,0.77,meteohub,2013-08-01 23:10:00,
2013-08-01 19:15:00,87.1,76.1,29.93,WNW,294,0.0,4.0,70,0.00,,,0.77,meteohub,2013-08-01 23:15:00,
2013-08-01 19:21:00,86.9,75.9,29.93,WNW,294,1.0,4.0,70,0.00,,,0.77,meteohub,2013-08-01 23:21:00,
2013-08-01 19:26:00,86.5,75.9,29.93,WNW,294,0.0,4.0,71,0.00,,,0.77,meteohub,2013-08-01 23:26:00,
2013-08-01 19:31:00,86.4,76.3,29.93,WNW,294,1.0,3.0,72,0.00,,,0.77,meteohub,2013-08-01 23:31:00,
2013-08-01 19:36:00,86.2,76.1,29.94,WNW,294,1.0,4.0,72,0.00,,,0.77,meteohub,2013-08-01 23:36:00,
2013-08-01 19:42:00,86.0,76.3,29.94,WNW,294,3.0,4.0,73,0.00,,,0.77,meteohub,2013-08-01 23:42:00,
2013-08-01 19:47:00,85.8,76.1,29.94,WNW,294,0.0,4.0,73,0.00,,,0.77,meteohub,2013-08-01 23:47:00,
2013-08-01 19:52:00,85.6,76.5,29.94,WNW,294,2.0,3.0,74,0.00,,,0.77,meteohub,2013-08-01 23:52:00,
2013-08-01 19:57:00,85.3,76.5,29.94,WNW,294,1.0,3.0,75,0.00,,,0.77,meteohub,2013-08-01 23:57:00,
2013-08-01 20:02:00,85.1,76.6,29.94,WNW,294,0.0,4.0,76,0.00,,,0.77,meteohub,2013-08-02 00:02:00,
2013-08-01 20:07:00,84.9,76.5,29.94,WNW,294,1.0,4.0,76,0.00,,,0.77,meteohub,2013-08-02 00:07:00,
2013-08-01 20:11:00,84.7,76.3,29.94,WNW,294,1.0,3.0,76,0.00,,,0.77,meteohub,2013-08-02 00:11:00,
2013-08-01 20:16:00,84.6,76.5,29.94,WNW,294,1.0,3.0,77,0.00,,,0.77,meteohub,2013-08-02 00:16:00,
2013-08-01 20:22:00,84.4,76.5,29.94,WNW,294,1.0,3.0,77,0.00,,,0.77,meteohub,2013-08-02 00:22:00,
2013-08-01 20:27:00,84.0,76.1,29.94,WNW,294,0.0,3.0,77,0.00,,,0.77,meteohub,2013-08-02 00:27:00,
2013-08-01 20:31:00,84.0,76.1,29.94,WNW,294,0.0,3.0,77,0.00,,,0.77,meteohub,2013-08-02 00:31:00,
2013-08-01 20:37:00,83.8,75.9,29.94,WNW,294,1.0,2.0,77,0.00,,,0.77,meteohub,2013-08-02 00:37:00,
2013-08-01 20:42:00,83.7,76.1,29.94,WNW,294,0.0,2.0,78,0.00,,,0.77,meteohub,2013-08-02 00:42:00,
2013-08-01 20:47:00,83.7,76.1,29.94,WNW,294,0.0,2.0,78,0.00,,,0.77,meteohub,2013-08-02 00:47:00,
2013-08-01 20:52:00,83.5,76.3,29.94,WNW,294,0.0,2.0,79,0.00,,,0.77,meteohub,2013-08-02 00:52:00,
2013-08-01 20:57:00,83.1,75.9,29.94,WNW,294,0.0,1.0,79,0.00,,,0.77,meteohub,2013-08-02 00:57:00,
2013-08-01 21:02:00,82.8,75.6,29.94,WNW,294,0.0,0.0,79,0.00,,,0.77,meteohub,2013-08-02 01:02:00,
2013-08-01 21:07:00,82.6,75.4,29.94,WNW,294,0.0,0.0,79,0.00,,,0.77,meteohub,2013-08-02 01:07:00,
2013-08-01 21:13:00,82.6,75.7,29.94,WNW,294,0.0,1.0,80,0.00,,,0.77,meteohub,2013-08-02 01:13:00,
2013-08-01 21:18:00,82.6,75.7,29.94,WNW,294,0.0,1.0,80,0.00,,,0.77,meteohub,2013-08-02 01:18:00,
2013-08-01 21:24:00,82.6,76.1,29.94,WNW,294,0.0,1.0,81,0.00,,,0.77,meteohub,2013-08-02 01:24:00,
2013-08-01 21:29:00,82.2,75.7,29.95,WNW,294,0.0,1.0,81,0.00,,,0.77,meteohub,2013-08-02 01:29:00,
2013-08-01 21:34:00,82.2,76.1,29.95,WNW,294,1.0,1.0,82,0.00,,,0.77,meteohub,2013-08-02 01:34:00,
2013-08-01 21:40:00,82.2,76.1,29.95,WNW,294,0.0,0.0,82,0.00,,,0.77,meteohub,2013-08-02 01:40:00,
2013-08-01 21:45:00,82.4,76.3,29.96,WNW,294,2.0,2.0,82,0.00,,,0.77,meteohub,2013-08-02 01:45:00,
2013-08-01 21:50:00,82.2,75.4,29.96,ESE,115,8.0,8.0,80,0.00,,,0.77,meteohub,2013-08-02 01:50:00,
2013-08-01 21:55:00,81.5,74.7,29.97,ENE,72,5.0,13.0,80,0.00,,,0.77,meteohub,2013-08-02 01:55:00,
2013-08-01 22:01:00,80.8,74.5,29.96,ESE,107,2.0,13.0,81,0.00,,,0.77,meteohub,2013-08-02 02:01:00,
2013-08-01 22:06:00,80.2,73.9,29.96,ESE,109,4.0,10.0,81,0.00,,,0.77,meteohub,2013-08-02 02:06:00,
2013-08-01 22:12:00,79.9,73.6,29.96,East,101,3.0,9.0,81,0.00,,,0.77,meteohub,2013-08-02 02:12:00,
2013-08-01 22:17:00,79.5,73.9,29.96,ESE,120,2.0,9.0,83,0.00,,,0.77,meteohub,2013-08-02 02:17:00,
2013-08-01 22:22:00,79.2,73.9,29.96,ESE,121,3.0,8.0,84,0.00,,,0.77,meteohub,2013-08-02 02:22:00,
2013-08-01 22:26:00,78.8,73.2,29.97,ESE,121,1.0,7.0,83,0.00,,,0.77,meteohub,2013-08-02 02:26:00,
2013-08-01 22:31:00,78.6,73.0,29.96,ESE,121,2.0,5.0,83,0.00,,,0.77,meteohub,2013-08-02 02:31:00,
2013-08-01 22:37:00,78.4,72.9,29.96,ESE,121,2.0,5.0,83,0.00,,,0.77,meteohub,2013-08-02 02:37:00,
2013-08-01 22:42:00,78.4,73.2,29.96,ESE,121,2.0,4.0,84,0.00,,,0.77,meteohub,2013-08-02 02:42:00,
2013-08-01 22:47:00,78.4,73.2,29.96,ESE,120,1.0,4.0,84,0.00,,,0.77,meteohub,2013-08-02 02:47:00,
2013-08-01 22:52:00,78.4,73.2,29.95,ESE,121,1.0,3.0,84,0.00,,,0.77,meteohub,2013-08-02 02:52:00,
2013-08-01 22:57:00,78.3,73.0,29.95,ESE,120,1.0,3.0,84,0.00,,,0.77,meteohub,2013-08-02 02:57:00,
2013-08-01 23:02:00,78.4,73.6,29.95,ESE,120,0.0,3.0,85,0.00,,,0.77,meteohub,2013-08-02 03:02:00,
2013-08-01 23:08:00,78.4,73.6,29.95,ESE,120,1.0,3.0,85,0.00,,,0.77,meteohub,2013-08-02 03:08:00,
2013-08-01 23:13:00,78.4,73.6,29.95,ESE,120,0.0,2.0,85,0.00,,,0.77,meteohub,2013-08-02 03:13:00,
2013-08-01 23:18:00,78.3,73.4,29.96,ESE,120,0.0,2.0,85,0.00,,,0.77,meteohub,2013-08-02 03:18:00,
2013-08-01 23:24:00,78.3,73.8,29.95,ESE,120,0.0,2.0,86,0.00,,,0.77,meteohub,2013-08-02 03:24:00,
2013-08-01 23:29:00,78.1,73.6,29.95,ESE,120,0.0,1.0,86,0.00,,,0.77,meteohub,2013-08-02 03:29:00,
2013-08-01 23:34:00,78.1,73.6,29.95,ESE,120,0.0,1.0,86,0.00,,,0.77,meteohub,2013-08-02 03:34:00,
2013-08-01 23:39:00,77.9,73.8,29.95,ESE,120,1.0,1.0,87,0.00,,,0.77,meteohub,2013-08-02 03:39:00,
2013-08-01 23:45:00,77.7,73.6,29.95,ESE,121,1.0,1.0,87,0.00,,,0.77,meteohub,2013-08-02 03:45:00,
2013-08-01 23:50:00,77.9,73.4,29.95,ESE,121,0.0,3.0,86,0.00,,,0.77,meteohub,2013-08-02 03:50:00,
2013-08-01 23:55:00,77.9,73.4,29.95,ESE,121,1.0,3.0,86,0.00,,,0.77,meteohub,2013-08-02 03:55:00,